| Licitante | Valor da licitação | Tempo de licitação |
| j****************m | 50,50€ | 2026-05-08 22:06:01 |
| j****************m | 50,00€ | 2026-05-07 21:41:23 |
| d*****************m | 49,50€ | 2026-05-08 19:17:25 |
| d*****************m | 48,00€ | 2026-05-08 19:17:08 |
| d*****************m | 47,00€ | 2026-05-08 19:17:01 |
| d*****************m | 46,00€ | 2026-05-08 17:10:42 |
| d*****************m | 44,00€ | 2026-05-08 07:24:53 |
| d*****************m | 43,00€ | 2026-05-07 22:52:54 |
| d*****************m | 42,00€ | 2026-05-07 22:52:23 |
| d*****************m | 41,00€ | 2026-05-07 19:54:54 |
| j****************m | 40,00€ | 2026-05-07 19:18:44 |
| d*****************m | 35,50€ | 2026-05-07 19:54:10 |
| d*****************m | 33,00€ | 2026-05-07 19:54:01 |
| f************************m | 30,00€ | 2026-05-07 18:33:11 |
| j****************m | 30,00€ | 2026-05-07 19:18:15 |
| j****************m | 25,00€ | 2026-05-07 19:18:05 |
| p************************m | 20,00€ | 2026-05-07 18:37:41 |
| h**************m | 0,40€ | 2026-05-07 18:23:47 |
| p**************m | 0,20€ | 2026-05-07 18:18:55 |
| Iniciar leilão | 0,20€ | 06/05/2026 18:32:00 |
Kit Chave de Impacto 1/2″ com 2 Baterias 520 Nm 4200 Rpm Brushless Alto Torque
50,50€
Descrição
Informação adicional
| Peso | 4,475 kg |
|---|








